Home > Weather > Winterthur > Past weeks

Flag for Switzerland Past Weather in Winterthur, Switzerland — Yesterday and Last 2 Weeks

Now
64 °F

Scattered clouds.


Feels Like: 64 °F
Forecast: 58 / 85 °F
Wind: 2 mph from West

Location: Zurich-Kloten

Current Time: Aug 26, 2016 at 9:07:55 AM

Latest Report: Aug 26, 2016 at 8:20 AM


Visibility: 0 mi

Pressure: 30.12 "Hg

Humidity: 100%

Dew Point: 64 °F

Location of WinterthurLocation

Past Weather in Winterthur — Graph

°F

Winterthur Temperature Yesterday

Maximum temperature yesterday: 88 °F (at 4:20 PM)
Minimum temperature yesterday: 55 °F (at 6:20 AM)
Average temperature yesterday: 72 °F

High & Low Weather Summary for the Past Weeks

 TemperatureHumidityPressure
High88 °F (Aug 25, 4:20 PM)100% (Aug 11, 7:20 AM)30.42 "Hg (Aug 11, 7:20 AM)
Low48 °F (Aug 11, 7:20 AM)38% (Aug 11, 4:20 PM)29.86 "Hg (Aug 17, 5:20 PM)
Average67 °F75%30.15 "Hg
* Reported Aug 11 7:20 AM — Aug 26 7:50 AM, Winterthur, Weather by CustomWeather, © 2016

Note: Actual official high and low records may vary slightly from our data, if they occured in-between our weather recording intervals... More about our weather records

Advertising

Winterthur Weather History for the Previous 24 Hours

Scroll right to see more
 ConditionsComfort  
Time TempWeatherWind HumidityBarometerVisibility
7:50 AM
Fri, Aug 26
64 °FScattered clouds.2 mph100%30.12 "Hg0 mi
7:20 AM63 °FPassing clouds.2 mph100%30.12 "Hg0 mi
6:50 AM63 °FPassing clouds.3 mph94%30.09 "Hg0 mi
6:20 AM63 °FPassing clouds.1 mph100%30.09 "Hg0 mi
5:50 AM61 °FPassing clouds.No wind100%30.09 "Hg1 mi
5:20 AM63 °FPassing clouds.1 mph100%30.09 "Hg1 mi
4:50 AM63 °FPassing clouds.1 mph94%30.09 "Hg1 mi
4:20 AM63 °FMild.1 mph94%30.09 "Hg2 mi
3:50 AM63 °FMild.2 mph94%30.09 "Hg2 mi
3:20 AM64 °FMild.1 mph94%30.09 "Hg3 mi
2:50 AM64 °FLight fog.1 mph100%30.07 "Hg6 mi
1:50 AM64 °FFog.No wind94%30.07 "HgN/A
1:20 AM66 °FFog.1 mph94%30.07 "HgN/A
12:50 AM66 °FFog.1 mph100%30.07 "HgN/A
12:20 AM66 °FClear.1 mph94%30.07 "Hg10 mi
11:50 PM
Thu, Aug 25
68 °FClear.1 mph88%30.07 "Hg10 mi
11:20 PM70 °FClear.1 mph88%30.07 "Hg10 mi
10:50 PM72 °FClear.1 mph83%30.07 "Hg10 mi
10:20 PM70 °FClear.2 mph88%30.07 "Hg10 mi
9:50 PM72 °FClear.2 mph78%30.07 "Hg10 mi
9:20 PM75 °FClear.3 mph74%30.07 "Hg10 mi
8:50 PM77 °FSunny.1 mph69%30.07 "Hg10 mi
8:20 PM81 °FSunny.5 mph62%30.04 "Hg10 mi
7:50 PM84 °FPassing clouds.3 mph51%30.04 "HgN/A
7:20 PM86 °FSunny.2 mph46%30.04 "Hg10 mi
6:50 PM88 °FSunny.2 mph40%30.04 "Hg10 mi
6:20 PM88 °FPassing clouds.3 mph40%30.04 "HgN/A
5:50 PM88 °FPassing clouds.3 mph43%30.04 "HgN/A
5:20 PM88 °FSunny.2 mph46%30.07 "Hg10 mi
4:50 PM88 °FSunny.2 mph46%30.07 "Hg10 mi
4:20 PM88 °FSunny.3 mph43%30.07 "Hg10 mi
3:50 PM86 °FSunny.3 mph49%30.07 "Hg10 mi
3:20 PM86 °FSunny.3 mph52%30.07 "Hg10 mi
2:50 PM86 °FSunny.5 mph49%30.09 "Hg10 mi
2:20 PM84 °FSunny.6 mph51%30.09 "Hg10 mi
1:50 PM82 °FPassing clouds.6 mph55%30.09 "HgN/A
1:20 PM81 °FPassing clouds.6 mph58%30.09 "HgN/A
12:50 PM81 °FPassing clouds.6 mph58%30.09 "HgN/A
12:20 PM79 °FPassing clouds.5 mph65%30.12 "HgN/A
11:50 AM77 °FSunny.2 mph65%30.12 "Hg10 mi
11:20 AM75 °FSunny.2 mph65%30.12 "Hg10 mi
10:50 AM73 °FSunny.2 mph69%30.12 "Hg10 mi
10:20 AM72 °FSunny.2 mph69%30.12 "Hg10 mi
9:50 AM70 °FSunny.1 mph73%30.15 "Hg10 mi
9:20 AM68 °FSunny.2 mph78%30.15 "Hg10 mi
Weather by CustomWeather, © 2016

See weather overviewHow to use our weather pages